Zurück zum Katalog

COSMOS 2499 DEB

LostPO
NORAD 49937·DEBRIS·🇷🇺 Russia

Gestartet May 23, 2014 von Plesetsk Cosmodrome

Loading…

Nächste Überflüge (nächste 24 Stunden)

TLE

VeraltetSource: Space-Track

Epoche: Nov 15, 2024, 15:15 UTC

1 49937U 14028U   24320.63590965  .00007174  00000-0  19777-1 0  9992
2 49937  82.4956 279.0823 0307013 244.3195 112.5919 12.97756850142792

Verfolge COSMOS 2499 DEB in Echtzeit mit AllMySat

Download on the App Store